+07,Max TemperatureF,Mean TemperatureF,Min TemperatureF,Max Dew PointF,MeanDew PointF,Min DewpointF,Max Humidity, Mean Humidity, Min Humidity, Max Sea Level PressureIn, Mean Sea Level PressureIn, Min Sea Level PressureIn, Max VisibilityMiles, Mean VisibilityMiles, Min VisibilityMiles, Max Wind SpeedMPH, Mean Wind SpeedMPH, Max Gust SpeedMPH,PrecipitationIn, CloudCover, Events, WindDirDegrees
2013-1-1,82,74,66,66,62,61,83,63,48,30.01,29.92,29.83,6,6,6,12,3,,0.00,4,,148
2013-1-2,84,74,64,81,65,63,94,72,48,29.98,29.91,29.83,6,5,1,7,2,,0.00,2,,166
2013-1-3,84,74,64,68,66,63,94,73,51,30.01,29.94,29.86,6,6,2,0,0,,0.00,4,,-1
2013-1-4,86,75,64,68,65,63,94,69,45,29.98,29.88,29.80,6,5,1,5,1,,0.00,1,,117
2013-1-5,86,75,64,66,64,61,94,67,43,29.95,29.86,29.77,6,5,1,7,2,,0.00,2,,166
2013-1-6,84,72,60,64,63,59,94,69,42,29.98,29.89,29.80,6,4,1,6,1,,0.00,3,,139
2013-1-7,80,70,60,64,62,59,100,72,51,30.06,29.92,29.86,6,5,0,6,1,,0.00,3,Fog,177
2013-1-8,86,73,60,64,60,54,94,66,33,30.01,29.91,29.83,6,4,1,6,2,,0.00,2,,230
2013-1-9,82,68,55,61,58,55,100,65,42,30.01,29.90,29.80,6,6,6,4,1,,0.00,1,,131
2013-1-10,78,68,57,66,60,55,100,73,47,29.98,29.88,29.80,6,5,2,6,1,,0.00,1,,174
2013-1-11,80,70,59,61,59,55,94,68,45,29.98,29.89,29.80,6,5,2,8,2,,0.00,2,,168
2013-1-12,80,70,59,63,57,50,94,66,34,30.01,29.92,29.83,6,5,2,6,1,,0.00,1,,91
2013-1-13,77,67,57,61,57,54,94,70,50,30.01,29.92,29.86,6,6,4,7,2,,0.00,5,,72
2013-1-14,78,68,59,63,59,57,94,67,47,29.98,29.93,29.86,6,4,1,8,2,,0.00,3,,121
2013-1-15,80,68,57,63,59,55,100,68,42,30.04,29.97,29.92,6,5,3,5,2,,0.00,1,,109
2013-1-16,84,73,62,63,58,52,94,62,33,30.09,30.01,29.92,6,4,2,6,2,,0.00,2,,76
2013-1-17,82,70,59,63,59,55,94,70,39,30.12,30.05,29.92,6,4,1,6,1,,0.00,2,,80
2013-1-18,80,70,59,63,59,55,94,68,42,30.18,30.08,30.01,6,5,4,6,2,,0.00,2,,81
2013-1-19,80,68,57,61,58,55,100,67,42,30.15,30.02,29.92,6,5,1,6,2,,0.00,2,Fog,178
2013-1-20,82,68,55,61,58,54,94,63,39,30.09,30.01,29.92,6,4,1,5,2,,0.00,2,,107
2013-1-21,84,70,57,63,58,54,94,65,37,30.12,30.03,29.95,6,4,2,5,2,,0.00,1,,98
2013-1-22,84,70,57,61,58,54,94,65,35,30.12,30.01,29.92,6,4,2,6,1,,0.00,1,,55
2013-1-23,86,72,57,63,59,55,94,66,37,30.06,29.97,29.89,6,4,2,5,1,,0.00,2,,80
2013-1-24,86,72,57,61,56,48,94,57,29,30.04,29.95,29.89,6,6,6,5,2,,0.00,1,,75
2013-1-25,87,71,55,57,54,46,94,55,25,30.01,29.92,29.83,6,6,5,6,2,,0.00,1,,114
2013-1-26,84,68,53,61,55,50,94,62,30,30.01,29.93,29.86,,,,5,0,,0.00,,,80
2013-1-27,84,70,55,61,58,54,94,65,37,30.06,29.97,29.89,6,6,6,6,2,,0.00,4,,112
2013-1-28,84,72,60,64,60,54,94,65,35,30.04,29.97,29.89,6,6,5,7,2,,0.00,4,,73
2013-1-29,82,74,66,68,63,59,94,71,51,30.06,29.99,29.92,6,6,6,8,3,,0.00,5,Rain,61
2013-1-30,78,71,64,68,65,61,94,85,65,30.09,30.01,29.92,6,4,1,18,4,,0.00,7,Rain-Thunderstorm,178
2013-1-31,75,70,64,64,62,59,94,79,57,30.15,30.07,29.98,6,6,3,8,3,,0.00,6,,70